Total_Precipitation_Accumulation
1.91 2.33 2.63 3.19 3.80 4.17 4.56 4.71 4.70 4.58 4.36 3.95 3.61 3.36 3.14 2.97 2.72 2.55 2.47 2.35 2.24 2.36 2.72 2.60 2.78 2.74 2.73 2.74 2.77 2.82 2.69 2.31 2.49 2.57 2.09 1.56 1.21 1.23 1.03 0.94 1.00 1.07 1.10
1.81 2.33 2.63 2.85 3.32 3.83 4.29 4.57 4.72 4.60 4.20 3.78 3.55 3.40 3.35 2.98 2.68 2.65 2.69 2.52 2.54 2.56 2.58 2.71 2.69 2.73 2.83 2.75 2.70 2.74 2.56 2.17 2.33 2.56 2.61 1.98 1.59 1.24 0.89 0.98 1.09 1.19 1.30
2.07 2.33 2.53 2.69 2.97 3.36 3.67 3.79 3.94 3.90 3.73 3.74 3.74 3.65 3.60 3.14 3.01 3.00 2.97 2.79 2.77 2.76 2.74 2.71 2.61 2.58 2.44 2.45 2.50 2.50 2.50 2.35 2.23 2.45 2.73 2.30 1.82 1.51 1.10 1.05 1.12 1.29 1.50
1.71 1.87 2.18 2.50 2.68 2.91 3.26 3.49 3.54 3.49 3.39 3.48 3.50 3.38 3.16 2.98 3.08 3.34 3.29 3.02 2.78 2.60 2.39 2.29 2.35 2.35 2.21 2.20 1.97 2.06 2.20 2.19 2.02 2.19 2.24 2.25 2.25 2.16 1.57 1.19 1.09 1.24 1.40
1.46 1.57 1.77 2.09 2.20 2.51 2.80 3.05 3.32 3.40 3.34 3.38 3.30 3.30 3.18 3.16 3.19 3.13 3.09 2.85 2.62 2.30 1.99 1.95 2.03 2.03 1.95 1.88 1.82 1.95 1.86 1.79 1.78 1.97 2.13 2.19 2.24 2.17 2.03 1.65 1.56 1.55 1.45
1.31 1.49 1.65 1.88 2.00 2.15 2.27 2.41 2.63 2.90 3.07 3.11 3.08 3.11 3.04 3.01 2.93 2.81 2.65 2.43 2.24 1.97 1.73 1.60 1.72 1.82 1.86 1.83 1.80 1.88 1.77 1.75 1.87 1.84 1.89 2.09 2.11 2.11 2.24 1.93 1.77 1.73 1.51
1.01 1.23 1.37 1.47 1.62 1.75 1.84 1.96 2.16 2.49 2.66 2.65 2.63 2.75 2.79 2.79 2.70 2.65 2.47 2.23 1.98 1.70 1.64 1.63 1.69 1.74 1.81 1.71 1.75 1.80 1.83 1.95 1.99 1.89 1.83 1.93 1.98 2.07 2.23 2.20 2.01 1.91 1.74
0.77 0.93 1.14 1.35 1.42 1.46 1.58 1.72 1.94 2.17 2.27 2.22 2.35 2.54 2.61 2.69 2.57 2.58 2.33 2.07 1.87 1.77 1.81 1.78 1.66 1.61 1.70 1.62 1.83 1.75 1.78 1.95 1.95 1.74 1.94 1.98 2.01 2.21 2.35 2.46 2.53 2.31 2.06
0.75 0.82 0.90 1.07 1.13 1.19 1.31 1.46 1.81 2.09 2.19 2.22 2.35 2.44 2.50 2.48 2.38 2.28 2.11 1.92 1.92 1.87 1.98 1.93 1.80 1.70 1.76 1.88 2.12 2.03 2.01 2.18 2.11 2.04 2.19 2.14 2.07 2.17 2.24 2.42 2.59 2.67 2.41
0.54 0.61 0.66 0.77 0.89 1.10 1.36 1.52 1.65 1.94 2.07 2.08 2.15 2.17 2.32 2.27 2.15 2.08 1.93 1.78 1.69 1.74 1.90 2.01 1.95 1.87 1.90 2.05 2.20 2.18 2.32 2.44 2.38 2.40 2.48 2.41 2.26 2.29 2.34 2.36 2.55 2.79 2.72
0.42 0.49 0.62 0.76 0.93 1.08 1.24 1.34 1.40 1.56 1.70 1.80 1.97 1.95 1.93 2.02 2.05 1.91 1.73 1.67 1.65 1.69 1.77 1.94 2.01 1.99 2.02 2.11 2.14 2.10 2.36 2.45 2.43 2.39 2.38 2.34 2.40 2.39 2.29 2.36 2.50 2.70 2.75
0.50 0.55 0.72 0.89 1.01 1.14 1.16 1.17 1.23 1.37 1.52 1.70 1.89 1.96 1.97 2.01 1.97 1.80 1.65 1.63 1.65 1.73 1.80 1.92 1.93 1.86 1.87 2.04 2.06 2.11 2.32 2.41 2.30 2.25 2.24 2.08 2.12 2.15 2.02 2.12 2.20 2.30 2.50
0.63 0.73 0.81 0.84 0.87 0.94 1.03 1.01 1.03 1.19 1.37 1.59 1.93 2.09 2.09 2.02 1.94 1.76 1.56 1.52 1.58 1.69 1.75 1.76 1.77 1.82 1.93 2.02 2.03 2.02 2.01 2.00 2.05 2.23 2.31 2.14 2.13 2.02 1.96 1.96 1.91 1.98 2.10
0.69 0.80 0.81 0.88 0.87 0.83 0.91 0.90 0.95 1.05 1.27 1.46 1.66 1.78 1.70 1.66 1.67 1.59 1.50 1.46 1.49 1.56 1.64 1.71 1.78 1.85 1.90 1.93 1.98 2.00 1.94 1.91 1.95 2.07 2.12 2.09 2.04 1.94 2.00 1.91 1.87 1.90 2.01
0.63 0.70 0.70 0.76 0.79 0.80 0.87 0.81 0.80 0.85 0.99 1.17 1.29 1.43 1.44 1.42 1.41 1.46 1.52 1.54 1.62 1.62 1.68 1.73 1.75 1.75 1.75 1.65 1.66 1.71 1.72 1.84 1.82 1.73 1.75 1.75 1.78 1.77 1.76 1.63 1.74 1.90 1.98
0.45 0.43 0.60 0.69 0.65 0.64 0.66 0.61 0.67 0.80 0.94 1.05 1.16 1.36 1.49 1.52 1.51 1.55 1.63 1.68 1.68 1.69 1.71 1.68 1.73 1.72 1.48 1.60 1.59 1.56 1.68 1.78 1.77 1.67 1.58 1.50 1.48 1.43 1.41 1.37 1.44 1.66 1.82
0.40 0.34 0.41 0.56 0.55 0.56 0.57 0.66 0.79 0.92 1.03 1.17 1.31 1.50 1.60 1.68 1.70 1.65 1.75 1.72 1.72 1.75 1.72 1.66 1.65 1.68 1.73 1.73 1.55 1.42 1.42 1.54 1.57 1.54 1.53 1.37 1.27 1.40 1.35 1.37 1.35 1.37 1.51
0.39 0.35 0.36 0.41 0.48 0.55 0.62 0.76 1.02 1.22 1.26 1.40 1.59 1.70 1.81 1.78 1.76 1.75 1.77 1.84 1.91 1.92 1.89 1.82 1.74 1.75 1.73 1.65 1.46 1.44 1.39 1.44 1.46 1.49 1.50 1.49 1.42 1.43 1.51 1.51 1.45 1.35 1.32
0.43 0.42 0.41 0.48 0.57 0.62 0.66 0.87 1.09 1.31 1.44 1.50 1.63 1.80 1.90 1.95 1.98 2.00 1.95 1.99 2.06 2.01 1.94 1.90 1.93 1.88 1.91 1.92 1.72 1.69 1.57 1.59 1.61 1.63 1.63 1.61 1.53 1.61 1.54 1.48 1.47 1.43 1.41
0.54 0.53 0.55 0.63 0.77 0.87 0.91 1.05 1.16 1.29 1.45 1.53 1.65 1.83 2.04 2.11 2.15 2.28 2.34 2.27 2.22 2.10 2.12 2.11 2.09 2.10 2.14 2.33 2.11 1.93 1.77 1.80 1.81 1.88 1.86 1.86 1.69 1.67 1.57 1.44 1.47 1.48 1.50
0.65 0.63 0.65 0.77 0.96 1.10 1.16 1.25 1.38 1.49 1.50 1.57 1.70 1.89 2.06 2.14 2.21 2.35 2.44 2.42 2.39 2.37 2.31 2.23 2.25 2.25 2.27 2.41 2.16 1.97 1.85 1.92 2.02 2.01 1.93 1.98 1.93 1.71 1.66 1.59 1.53 1.52 1.50
0.75 0.75 0.80 0.94 1.16 1.33 1.29 1.33 1.39 1.44 1.47 1.48 1.59 1.71 1.87 1.92 2.01 2.24 2.34 2.41 2.44 2.40 2.31 2.24 2.12 2.15 2.15 2.09 1.98 1.87 1.82 1.90 2.02 2.09 2.01 1.97 1.89 1.63 1.52 1.40 1.38 1.38 1.26
0.79 0.82 0.88 1.09 1.33 1.47 1.48 1.53 1.42 1.47 1.49 1.52 1.64 1.76 1.85 1.92 2.03 2.13 2.14 2.20 2.28 2.25 2.16 2.14 2.07 2.04 2.06 2.03 1.79 1.58 1.55 1.58 1.63 1.79 1.89 1.78 1.65 1.43 1.23 1.19 1.15 1.05 0.94
0.74 0.78 0.87 0.96 1.06 1.25 1.41 1.49 1.53 1.57 1.57 1.60 1.63 1.70 1.81 1.85 1.88 1.99 2.08 2.17 2.28 2.36 2.27 2.17 2.07 2.04 1.98 1.85 1.66 1.48 1.41 1.49 1.60 1.68 1.71 1.55 1.44 1.25 1.13 1.05 0.96 0.90 0.94
0.74 0.77 0.86 0.88 0.92 1.01 1.12 1.20 1.28 1.40 1.45 1.49 1.54 1.57 1.59 1.68 1.76 1.80 1.87 1.89 1.98 2.00 1.99 1.95 1.92 1.89 1.83 1.66 1.57 1.44 1.33 1.40 1.52 1.58 1.60 1.48 1.43 1.35 1.25 1.17 1.11 1.10 1.11
0.78 0.81 0.84 0.83 0.86 0.91 1.06 1.16 1.25 1.38 1.49 1.56 1.57 1.50 1.46 1.51 1.55 1.58 1.56 1.56 1.50 1.50 1.47 1.46 1.46 1.44 1.38 1.28 1.16 1.14 1.12 1.16 1.30 1.35 1.50 1.56 1.52 1.48 1.40 1.29 1.18 1.14 1.11